Waterbury, CT

9:43 PM EST on February 13, 2016 (GMT -0500)
Waterbury-Oxford

Weather History for KOXC - March, 2014

Change the Weather History Date:

Monday, March 17, 2014

  Actual Average (KBDR) Record (KBDR)
Temperature  
Mean Temperature 24 °F 39 °F  
Max Temperature 30 °F 47 °F 64 °F (1990)
Min Temperature 17 °F 32 °F 14 °F (1967)
Degree Days  
Heating Degree Days 42 26  
Month to date heating degree days 473  
Since 1 July heating degree days 4360  
Cooling Degree Days 0 0  
Month to date cooling degree days 0  
Year to date cooling degree days 0  
Moisture  
Dew Point 0 °F    
Average Humidity 39    
Maximum Humidity 49    
Minimum Humidity 27    
Precipitation  
Precipitation 0.00 in 0.14 in 1.10 in (1973)
Month to date precipitation 2.14  
Year to date precipitation 8.03  
Snow  
Snow 0.00 in 0.20 in 4.40 in (1967)
Month to date snowfall 3.6  
Since 1 July snowfall 25.2  
Snow Depth -    
Sea Level Pressure  
Sea Level Pressure 30.10 in    
Wind  
Wind Speed 9 mph (NNE)    
Max Wind Speed 13 mph    
Max Gust Speed 21 mph    
Visibility 10 miles    
Events      
T = Trace of Precipitation, MM = Missing Value Source: NWS Daily Summary

Daily Weather History Graph

Daily Weather History Graph

Search for Another Location

Airport or City:

Trip Planner

Search our weather history database for the weather conditions in past years. The results will help you decide how hot, cold, wet, or windy it might be!

Date:

Astronomy

Mar. 17, 2014 Rise Set
Actual Time 7:01 AM EDT 7:01 PM EDT
Civil Twilight 6:33 AM EDT 7:29 PM EDT
Nautical Twilight 6:01 AM EDT 8:01 PM EDT
Astronomical Twilight 5:28 AM EDT 8:34 PM EDT
Moon 8:16 PM EDT (3/17) 7:14 AM EDT (3/17)
Length of Visible Light 12h 55m
Length of Day
12h 00m
Full, 99% of the Moon is Illuminated
Mar 17
Full
Mar 23
Last Quarter
Mar 30
New
Apr 7
First Quarter
Apr 15
Full

Hourly Weather History & Observations

Time (EDT) Temp. Windchill Dew Point Humidity Pressure Visibility Wind Dir Wind Speed Gust Speed Precip Events Conditions
12:15 AM 21.2 °F 8.9 °F -2.2 °F 36% 30.15 in 10.0 mi North 12.7 mph - N/A   Overcast
12:35 AM 21.2 °F 10.1 °F -0.4 °F 39% 30.14 in 10.0 mi North 10.4 mph 17.3 mph N/A   Overcast
12:55 AM 19.4 °F 7.2 °F -0.4 °F 42% 30.14 in 10.0 mi North 11.5 mph 16.1 mph N/A   Overcast
1:15 AM 19.4 °F 8.6 °F -0.4 °F 42% 30.15 in 10.0 mi North 9.2 mph - N/A   Overcast
1:35 AM 19.4 °F 9.5 °F -0.4 °F 42% 30.15 in 10.0 mi North 8.1 mph - N/A   Overcast
1:55 AM 19.4 °F 8.6 °F 1.4 °F 46% 30.14 in 10.0 mi North 9.2 mph - N/A   Overcast
2:15 AM 19.4 °F 10.4 °F 1.4 °F 46% 30.14 in 10.0 mi NNE 6.9 mph - N/A   Overcast
2:35 AM 19.4 °F 7.2 °F -0.4 °F 42% 30.12 in 10.0 mi NNE 11.5 mph - N/A   Overcast
2:55 AM 19.4 °F 6.6 °F -0.4 °F 42% 30.12 in 10.0 mi North 12.7 mph - N/A   Overcast
3:15 AM 19.4 °F 7.9 °F -0.4 °F 42% 30.10 in 10.0 mi NNE 10.4 mph - N/A   Overcast
3:35 AM 19.4 °F 7.2 °F -0.4 °F 42% 30.10 in 10.0 mi North 11.5 mph 16.1 mph N/A   Overcast
3:55 AM 19.4 °F 6.6 °F -0.4 °F 42% 30.08 in 10.0 mi NNE 12.7 mph - N/A   Overcast
4:15 AM 17.6 °F 4.3 °F -0.4 °F 45% 30.07 in 10.0 mi NNE 12.7 mph 17.3 mph N/A   Overcast
4:35 AM 17.6 °F 6.4 °F -0.4 °F 45% 30.08 in 10.0 mi North 9.2 mph - N/A   Mostly Cloudy
4:55 AM 17.6 °F 6.4 °F -0.4 °F 45% 30.09 in 10.0 mi NNE 9.2 mph - N/A   Overcast
5:15 AM 17.6 °F 6.4 °F -0.4 °F 45% 30.08 in 10.0 mi NE 9.2 mph - N/A   Overcast
5:35 AM 17.6 °F 6.4 °F 1.4 °F 49% 30.08 in 10.0 mi NNE 9.2 mph - N/A   Overcast
5:45 AM 17.6 °F 7.3 °F -0.4 °F 45% 30.08 in 10.0 mi NE 8.1 mph - N/A   Overcast
6:45 AM 17.6 °F 5.0 °F -0.4 °F 45% 30.07 in 10.0 mi NE 11.5 mph 19.6 mph N/A   Overcast
7:55 AM 17.6 °F 5.0 °F -4.0 °F 38% 30.10 in 10.0 mi ENE 11.5 mph 17.3 mph N/A   Overcast
8:45 AM 17.6 °F 5.0 °F -5.8 °F 35% 30.12 in 10.0 mi NNE 11.5 mph 17.3 mph N/A   Overcast
9:45 AM 17.6 °F 6.4 °F -5.8 °F 35% 30.12 in 10.0 mi NE 9.2 mph 17.3 mph N/A   Clear
10:45 AM 19.4 °F 7.2 °F -2.2 °F 39% 30.08 in 10.0 mi NNE 11.5 mph 19.6 mph N/A   Scattered Clouds
11:50 AM 21.2 °F 10.1 °F -2.2 °F 36% 30.08 in 10.0 mi NNE 10.4 mph 20.7 mph N/A   Partly Cloudy
12:50 PM 23.0 °F 13.1 °F -0.4 °F 36% 30.07 in 10.0 mi NE 9.2 mph - N/A   Scattered Clouds
1:50 PM 26.6 °F 16.8 °F 1.4 °F 34% 30.03 in 10.0 mi NNE 10.4 mph 16.1 mph N/A   Partly Cloudy
2:50 PM 28.4 °F 22.2 °F 1.4 °F 31% 30.04 in 10.0 mi NNE 5.8 mph - N/A   Partly Cloudy
3:50 PM 28.4 °F 21.2 °F 1.4 °F 31% 30.05 in 10.0 mi North 6.9 mph - N/A   Partly Cloudy
4:50 PM 30.2 °F 25.4 °F 1.4 °F 29% 30.04 in 10.0 mi North 4.6 mph - N/A   Partly Cloudy
5:50 PM 30.2 °F 25.4 °F -0.4 °F 27% 30.05 in 10.0 mi East 4.6 mph - N/A   Mostly Cloudy
6:50 PM 30.2 °F 25.4 °F -0.4 °F 27% 30.06 in 10.0 mi SSE 4.6 mph - N/A   Mostly Cloudy
7:50 PM 28.4 °F 24.6 °F -0.4 °F 29% 30.07 in 10.0 mi SSE 3.5 mph - N/A   Mostly Cloudy
8:55 PM 26.6 °F - -2.2 °F 29% 30.10 in 10.0 mi Calm Calm - N/A   Scattered Clouds
9:15 PM 24.8 °F 20.5 °F -0.4 °F 34% 30.10 in 10.0 mi East 3.5 mph - N/A   Clear
9:35 PM 24.8 °F 20.5 °F -0.4 °F 34% 30.11 in 10.0 mi ENE 3.5 mph - N/A   Clear
9:55 PM 24.8 °F - -2.2 °F 31% 30.11 in 10.0 mi Calm Calm - N/A   Clear
10:15 PM 24.8 °F - 1.4 °F 36% 30.12 in 10.0 mi Calm Calm - N/A   Clear
10:35 PM 21.2 °F - -0.4 °F 39% 30.12 in 10.0 mi Calm Calm - N/A   Clear
10:55 PM 21.2 °F - 1.4 °F 42% 30.12 in 10.0 mi Calm Calm - N/A   Clear
11:15 PM 21.2 °F 16.4 °F -0.4 °F 39% 30.13 in 10.0 mi ENE 3.5 mph - N/A   Clear
11:35 PM 19.4 °F - 1.4 °F 46% 30.13 in 10.0 mi Calm Calm - N/A   Clear
11:55 PM 21.2 °F - 1.4 °F 42% 30.12 in 10.0 mi Calm Calm - N/A   Clear